period_start,C,m1,H,J0,J1,J2,J3,J4,J5,JA,JB,JC,JD,JJ,JK,JN,#
2017-01-17 00:00:04,0.00,0.33,0.00,22.81,27.17,30.63,14.81,48.00,1034.20,2029.00,3445.99,3041.04,3438.84,599.62,606.44,14.98,0000 0000 0000 0000 000000
2017-01-17 00:05:05,0.02,0.34,0.00,22.82,27.17,30.49,14.82,47.85,1034.20,2029.00,3445.40,3040.99,3438.12,600.37,606.82,15.03,0000 0000 0000 0000 000000
2017-01-17 00:10:07,0.00,0.34,0.00,22.85,27.17,30.61,14.79,48.02,1034.21,2029.00,3445.00,3040.84,3438.00,600.04,606.74,15.08,0000 0000 0000 0000 000000
2017-01-17 00:15:08,0.03,0.34,0.00,22.87,27.17,30.70,14.82,48.11,1034.21,2029.00,3444.45,3040.16,3437.79,600.25,606.82,15.13,0000 0000 0000 0000 000000
2017-01-17 00:20:09,0.01,0.34,0.00,22.93,27.17,30.70,14.84,48.18,1034.19,2029.00,3444.00,3040.00,3437.06,600.23,606.74,15.18,0000 0000 0000 0000 000000
2017-01-17 00:25:11,0.01,0.34,0.00,22.87,27.17,30.73,14.85,48.25,1034.19,2029.00,3443.37,3039.99,3436.98,599.77,606.36,15.23,0000 0000 0000 0000 000000
2017-01-17 00:30:12,0.02,0.34,0.00,22.86,27.17,30.72,14.82,47.98,1034.20,2029.00,3443.01,3039.71,3436.53,599.94,606.58,15.28,0000 0000 0000 0000 000000
2017-01-17 00:35:13,0.02,0.34,0.00,22.84,27.17,30.70,14.97,48.02,1034.21,2029.00,3442.64,3039.08,3436.03,600.54,607.24,15.33,0000 0000 0000 0000 000000
2017-01-17 00:40:14,0.00,0.34,0.00,22.83,27.17,30.62,14.78,48.03,1034.21,2029.00,3442.05,3039.00,3435.98,599.89,606.71,15.38,0000 0000 0000 0000 000000
2017-01-17 00:45:15,0.01,0.34,0.00,22.80,27.17,30.51,14.84,48.00,1034.20,2029.00,3441.97,3038.94,3435.40,600.27,607.07,15.43,0000 0000 0000 0000 000000
2017-01-17 00:50:17,0.03,0.34,0.00,22.81,27.17,30.39,14.73,47.99,1034.20,2029.00,3441.31,3038.39,3435.03,599.88,606.62,15.48,0000 0000 0000 0000 000000
2017-01-17 00:55:18,0.00,0.35,0.00,22.80,27.17,30.33,14.78,48.00,1034.20,2029.00,3441.00,3038.02,3434.99,600.27,606.83,15.53,0000 0000 0000 0000 000000
2017-01-17 01:00:19,0.02,0.35,0.00,22.80,27.17,30.50,14.83,48.17,1034.20,2029.00,3440.60,3038.00,3434.69,600.24,606.95,15.58,0000 0000 0000 0000 000000
2017-01-17 01:05:20,0.01,0.35,0.00,22.81,27.17,30.49,14.78,48.16,1034.20,2029.00,3440.01,3037.94,3434.05,599.87,606.69,15.63,0000 0000 0000 0000 000000
2017-01-17 01:10:22,0.01,0.35,0.00,22.82,27.17,30.47,14.87,48.36,1034.15,2029.00,3439.89,3037.48,3433.99,599.72,606.38,15.68,0000 0000 0000 0000 000000
2017-01-17 01:15:23,0.02,0.35,0.00,22.77,27.17,30.54,14.80,48.23,1033.76,2029.00,3439.10,3037.04,3433.78,600.18,606.57,15.73,0000 0000 0000 0000 000000
2017-01-17 01:20:25,0.01,0.35,0.00,22.75,27.15,30.53,14.85,48.32,1033.75,2029.00,3438.99,3037.00,3433.10,600.16,606.82,15.78,0000 0000 0000 0000 000000
2017-01-17 01:25:26,0.02,0.35,0.00,22.73,27.15,30.44,14.78,48.13,1033.95,2029.00,3438.30,3036.92,3432.99,600.15,606.96,15.83,0000 0000 0000 0000 000000
2017-01-17 01:30:27,0.02,0.35,0.00,22.72,27.15,30.38,14.80,48.10,1033.88,2029.00,3437.99,3036.44,3432.92,599.96,606.70,15.88,0000 0000 0000 0000 000000
2017-01-17 01:35:28,0.01,0.35,0.00,22.69,27.14,30.35,14.76,48.11,1033.67,2029.00,3437.86,3036.08,3432.40,599.91,606.48,15.93,0000 0000 0000 0000 000000
2017-01-17 01:40:29,0.01,0.35,0.00,22.71,27.13,30.35,14.78,47.99,1033.59,2029.00,3437.18,3036.02,3432.04,600.08,606.60,15.98,0000 0000 0000 0000 000000
2017-01-17 01:45:31,0.00,0.35,0.00,22.70,27.12,30.39,14.83,48.06,1033.45,2029.01,3437.01,3036.00,3432.00,600.15,606.74,16.03,0000 0000 0000 0000 000000
2017-01-17 01:50:32,0.01,0.35,0.00,22.69,27.12,30.39,14.74,47.95,1033.64,2029.00,3436.74,3035.96,3431.82,599.50,606.26,16.08,0000 0000 0000 0000 000000
2017-01-17 01:55:33,0.02,0.36,0.00,22.67,27.12,30.37,14.86,48.01,1033.69,2029.01,3436.08,3035.75,3431.21,600.06,606.72,16.13,0000 0000 0000 0000 000000
2017-01-17 02:00:34,0.02,0.36,0.00,22.68,27.10,30.43,14.73,47.97,1033.71,2029.04,3436.00,3035.36,3431.04,599.84,606.61,16.18,0000 0000 0000 0000 000000
2017-01-17 02:05:36,0.01,0.36,0.00,22.66,27.10,30.39,14.77,48.04,1033.57,2029.05,3435.78,3035.05,3431.01,599.74,606.41,16.23,0000 0000 0000 0000 000000
2017-01-17 02:10:37,0.01,0.36,0.00,22.67,27.10,30.35,14.82,47.88,1033.54,2029.07,3435.09,3035.00,3430.95,600.06,606.68,16.28,0000 0000 0000 0000 000000
2017-01-17 02:15:39,0.01,0.36,0.00,22.66,27.09,30.33,14.72,47.90,1033.70,2029.15,3434.98,3034.99,3430.55,599.90,606.71,16.33,0000 0000 0000 0000 000000
2017-01-17 02:20:40,0.01,0.36,0.00,22.64,27.07,30.29,14.79,47.96,1033.68,2029.12,3434.55,3034.87,3430.04,599.73,606.43,16.38,0000 0000 0000 0000 000000
2017-01-17 02:25:41,0.02,0.36,0.00,22.64,27.07,30.33,14.85,48.06,1033.57,2029.10,3434.02,3034.23,3429.99,600.19,606.97,16.43,0000 0000 0000 0000 000000
2017-01-17 02:30:42,0.01,0.36,0.00,22.63,27.07,30.31,14.79,48.07,1033.58,2029.07,3433.96,3034.01,3429.44,600.18,606.98,16.48,0000 0000 0000 0000 000000
2017-01-17 02:35:44,0.02,0.36,0.00,22.63,27.06,30.25,14.77,48.08,1033.42,2029.15,3433.51,3034.00,3429.02,599.61,606.25,16.53,0000 0000 0000 0000 000000
2017-01-17 02:40:45,0.01,0.36,0.00,22.63,27.05,30.30,14.82,48.10,1033.25,2029.21,3433.02,3033.88,3428.98,600.21,606.56,16.58,0000 0000 0000 0000 000000
2017-01-17 02:45:46,0.03,0.36,0.00,22.61,27.05,30.27,14.76,48.10,1033.23,2029.20,3432.81,3033.26,3428.67,599.91,606.51,16.63,0000 0000 0000 0000 000000
2017-01-17 02:50:48,0.04,0.37,0.00,22.60,27.05,30.30,14.80,47.84,1033.23,2029.45,3432.10,3033.03,3428.15,600.47,607.07,16.68,0000 0000 0000 0000 000000
2017-01-17 02:55:49,-0.00,0.37,0.00,22.60,27.03,30.34,14.73,48.03,1033.23,2029.38,3431.96,3033.00,3428.00,599.66,606.21,16.73,0000 0000 0000 0000 000000
2017-01-17 03:00:50,0.03,0.37,0.00,22.59,27.02,30.25,14.82,48.35,1033.22,2029.55,3431.18,3032.94,3427.94,599.84,606.43,16.78,0000 0000 0000 0000 000000
2017-01-17 03:05:51,0.05,0.37,0.00,22.57,27.02,30.33,14.84,48.22,1033.25,2029.73,3430.99,3032.54,3427.25,600.10,606.61,16.83,0000 0000 0000 0000 000000
2017-01-17 03:10:52,0.02,0.37,0.00,22.57,27.00,30.27,14.82,48.06,1033.25,2029.84,3430.67,3032.06,3427.00,599.75,606.46,16.88,0000 0000 0000 0000 000000
2017-01-17 03:15:54,0.00,0.37,0.00,22.55,27.00,30.27,14.80,48.08,1033.25,2029.85,3430.02,3032.00,3426.99,600.04,606.78,16.93,0000 0000 0000 0000 000000
2017-01-17 03:20:55,0.02,0.37,0.00,22.53,27.00,30.26,14.75,48.31,1033.22,2029.88,3429.73,3031.98,3426.63,600.00,606.67,16.98,0000 0000 0000 0000 000000
2017-01-17 03:25:56,0.02,0.37,0.00,22.54,26.97,30.24,14.85,48.35,1033.20,2029.88,3429.04,3031.76,3426.03,599.91,606.70,17.03,0000 0000 0000 0000 000000
2017-01-17 03:30:58,0.02,0.38,0.00,22.50,26.97,30.26,14.77,48.27,1033.18,2029.93,3428.97,3031.15,3426.00,599.79,606.40,17.08,0000 0000 0000 0000 000000
2017-01-17 03:36:00,0.01,0.38,0.00,22.50,26.96,30.27,14.82,48.17,1033.15,2029.98,3428.68,3031.03,3425.98,600.10,606.64,17.14,0000 0000 0000 0000 000000
2017-01-17 03:41:01,0.02,0.38,0.00,22.49,26.95,30.22,14.80,48.09,1033.18,2029.97,3428.06,3031.00,3425.42,599.96,606.83,17.19,0000 0000 0000 0000 000000
2017-01-17 03:46:03,0.00,0.38,0.00,22.49,26.94,30.23,14.83,47.92,1033.16,2029.98,3427.96,3030.98,3425.02,600.17,606.97,17.24,0000 0000 0000 0000 000000
2017-01-17 03:51:04,0.01,0.38,0.00,22.50,26.92,30.18,14.78,47.88,1032.95,2029.99,3427.51,3030.79,3425.00,599.86,606.65,17.29,0000 0000 0000 0000 000000
2017-01-17 03:56:05,0.02,0.38,0.00,22.50,26.92,30.23,14.87,47.98,1032.74,2029.99,3427.02,3030.27,3424.91,600.16,606.58,17.34,0000 0000 0000 0000 000000
2017-01-17 04:01:06,0.01,0.38,0.00,22.49,26.92,30.14,14.72,47.91,1032.89,2029.99,3426.93,3030.01,3424.17,600.07,606.67,17.39,0000 0000 0000 0000 000000
2017-01-17 04:06:08,0.01,0.38,0.00,22.50,26.90,30.17,14.75,47.98,1033.00,2029.99,3426.20,3029.99,3424.00,599.76,606.51,17.44,0000 0000 0000 0000 000000
2017-01-17 04:11:09,0.01,0.38,0.00,22.50,26.90,30.13,14.89,48.18,1032.93,2029.99,3425.98,3029.82,3423.87,600.12,606.79,17.49,0000 0000 0000 0000 000000
2017-01-17 04:16:10,0.04,0.38,0.00,22.48,26.90,30.19,14.84,48.27,1032.73,2029.99,3425.22,3029.12,3423.12,599.78,606.23,17.54,0000 0000 0000 0000 000000
2017-01-17 04:21:12,0.09,0.39,0.00,22.49,26.87,30.15,14.74,48.17,1032.73,2029.99,3423.95,3027.95,3421.86,599.98,606.55,17.59,0000 0000 0000 0000 000000
2017-01-17 04:26:13,0.02,0.39,0.00,22.49,26.87,30.12,14.79,48.16,1032.73,2029.99,3422.92,3026.99,3420.23,599.93,606.53,17.64,0000 0000 0000 0000 000000
2017-01-17 04:31:14,0.03,0.39,0.00,22.48,26.86,30.10,14.81,48.37,1032.62,2029.99,3422.10,3026.53,3419.98,600.14,606.59,17.69,0000 0000 0000 0000 000000
2017-01-17 04:36:15,0.03,0.39,0.00,22.43,26.85,30.13,14.78,48.27,1032.74,2030.00,3421.51,3026.03,3419.37,600.19,606.84,17.74,0000 0000 0000 0000 000000
2017-01-17 04:41:16,0.00,0.39,0.00,22.41,26.84,30.05,14.84,48.15,1032.75,2030.00,3421.00,3025.98,3419.00,600.16,606.80,17.79,0000 0000 0000 0000 000000
2017-01-17 04:46:17,0.05,0.40,0.00,22.40,26.82,30.07,14.78,48.01,1032.80,2030.00,3420.35,3025.42,3418.62,600.16,607.00,17.84,0000 0000 0000 0000 000000
2017-01-17 04:51:19,0.01,0.40,0.00,22.38,26.82,30.07,14.75,47.98,1032.80,2030.01,3419.86,3025.01,3418.02,599.77,606.56,17.89,0000 0000 0000 0000 000000
2017-01-17 04:56:20,0.02,0.40,0.00,22.39,26.80,30.07,14.77,48.15,1032.65,2030.03,3419.07,3024.95,3417.91,599.86,606.54,17.94,0000 0000 0000 0000 000000
2017-01-17 05:01:21,0.04,0.40,0.00,22.39,26.80,30.14,14.80,48.00,1032.73,2030.05,3418.61,3024.27,3417.19,600.29,606.93,17.99,0000 0000 0000 0000 000000
2017-01-17 05:06:23,0.02,0.40,0.00,22.38,26.78,30.04,14.85,48.01,1032.80,2030.17,3418.01,3024.01,3416.99,600.19,606.97,18.04,0000 0000 0000 0000 000000
2017-01-17 05:11:24,0.03,0.40,0.00,22.37,26.77,30.07,14.77,48.02,1032.80,2030.29,3417.39,3023.95,3416.56,599.74,606.61,18.09,0000 0000 0000 0000 000000
2017-01-17 05:16:25,0.06,0.41,0.00,22.35,26.76,30.02,14.83,48.08,1032.71,2030.49,3416.90,3023.29,3416.01,600.11,606.99,18.14,0000 0000 0000 0000 000000
2017-01-17 05:21:26,0.04,0.41,0.00,22.35,26.75,30.07,14.85,47.98,1032.67,2030.73,3416.15,3023.00,3415.71,600.06,606.92,18.19,0000 0000 0000 0000 000000
2017-01-17 05:26:27,0.03,0.41,0.00,22.35,26.75,30.06,14.74,47.83,1032.72,2030.75,3415.71,3022.77,3415.03,599.94,606.78,18.24,0000 0000 0000 0000 000000
2017-01-17 05:31:29,0.04,0.41,0.00,22.36,26.73,30.01,14.83,47.92,1032.73,2030.86,3415.03,3022.08,3414.73,600.16,606.99,18.29,0000 0000 0000 0000 000000
2017-01-17 05:36:30,0.02,0.41,0.00,22.36,26.72,29.99,14.77,47.93,1032.73,2030.92,3414.33,3021.98,3414.07,599.92,606.61,18.34,0000 0000 0000 0000 000000
2017-01-17 05:41:32,0.03,0.41,0.00,22.35,26.72,29.99,14.84,47.91,1032.73,2030.95,3413.90,3021.42,3413.94,600.45,607.28,18.39,0000 0000 0000 0000 000000
2017-01-17 05:46:33,0.03,0.42,0.00,22.35,26.70,29.93,14.75,47.95,1032.73,2030.98,3413.11,3021.03,3413.20,599.90,606.71,18.44,0000 0000 0000 0000 000000
2017-01-17 05:51:34,0.01,0.42,0.00,22.35,26.70,29.94,14.81,48.03,1032.73,2030.98,3412.83,3020.98,3412.99,600.17,607.00,18.49,0000 0000 0000 0000 000000
2017-01-17 05:56:35,0.04,0.42,0.00,22.35,26.70,29.81,14.80,48.03,1032.73,2030.98,3412.06,3020.37,3412.46,600.11,607.00,18.54,0000 0000 0000 0000 000000
2017-01-17 06:01:37,0.01,0.42,0.00,22.34,26.68,29.94,14.83,48.13,1032.63,2030.99,3411.66,3020.01,3412.00,600.17,606.89,18.59,0000 0000 0000 0000 000000
2017-01-17 06:06:38,0.01,0.42,0.00,22.34,26.67,29.99,14.77,48.12,1032.69,2030.99,3411.00,3019.90,3411.65,600.21,606.98,18.64,0000 0000 0000 0000 000000
2017-01-17 06:11:39,0.04,0.42,0.00,22.32,26.67,29.98,14.67,48.08,1032.73,2030.98,3410.20,3019.11,3411.02,599.47,606.34,18.69,0000 0000 0000 0000 000000
2017-01-17 06:16:40,0.00,0.42,0.00,22.30,26.66,29.87,14.67,48.08,1032.70,2030.99,3409.91,3019.00,3410.77,599.59,606.56,18.74,0000 0000 0000 0000 000000
2017-01-17 06:21:42,0.03,0.43,0.00,22.29,26.65,29.90,14.82,48.08,1032.68,2030.99,3409.12,3018.75,3410.07,599.87,606.80,18.79,0000 0000 0000 0000 000000
2017-01-17 06:26:43,0.02,0.43,0.00,22.30,26.65,29.84,14.77,48.05,1032.72,2030.99,3408.79,3018.06,3409.95,600.03,606.87,18.84,0000 0000 0000 0000 000000
2017-01-17 06:31:44,0.02,0.43,0.00,22.28,26.63,29.91,14.80,48.13,1032.68,2031.00,3408.09,3017.99,3409.26,599.84,606.89,18.89,0000 0000 0000 0000 000000
2017-01-17 06:36:45,0.02,0.43,0.00,22.26,26.62,29.97,14.77,48.03,1032.28,2031.00,3407.70,3017.61,3408.96,599.89,606.57,18.94,0000 0000 0000 0000 000000
2017-01-17 06:41:47,0.03,0.43,0.00,22.27,26.61,29.86,14.79,48.02,1032.51,2031.00,3407.02,3017.04,3408.25,600.11,606.93,18.99,0000 0000 0000 0000 000000
2017-01-17 06:46:48,0.01,0.43,0.00,22.27,26.60,29.84,14.85,48.07,1032.28,2031.00,3406.42,3016.97,3407.99,600.21,606.95,19.04,0000 0000 0000 0000 000000
2017-01-17 06:51:49,0.03,0.43,0.00,22.28,26.60,29.85,14.76,47.98,1032.30,2031.00,3405.97,3016.35,3407.50,599.81,606.59,19.09,0000 0000 0000 0000 000000
2017-01-17 06:56:51,0.02,0.43,0.00,22.27,26.58,29.83,14.85,48.09,1032.24,2031.02,3405.24,3016.03,3407.03,599.92,606.69,19.14,0000 0000 0000 0000 000000
2017-01-17 07:01:52,0.03,0.44,0.00,22.24,26.57,29.86,14.80,48.17,1032.24,2031.02,3404.55,3015.84,3406.65,600.17,606.93,19.19,0000 0000 0000 0000 000000
2017-01-17 07:06:53,0.03,0.44,0.00,22.23,26.57,29.86,14.83,48.03,1032.25,2031.02,3403.87,3015.08,3406.03,600.27,607.05,19.24,0000 0000 0000 0000 000000
2017-01-17 07:11:54,0.02,0.44,0.00,22.22,26.56,29.81,14.79,47.99,1032.29,2031.07,3403.06,3014.98,3405.73,599.99,606.93,19.29,0000 0000 0000 0000 000000
2017-01-17 07:16:56,0.04,0.44,0.00,22.22,26.55,29.80,14.82,48.08,1032.28,2031.09,3402.54,3014.31,3405.04,599.79,606.66,19.34,0000 0000 0000 0000 000000
2017-01-17 07:21:57,0.02,0.44,0.00,22.21,26.55,29.84,14.75,48.02,1032.26,2031.18,3401.94,3014.00,3404.70,599.79,606.60,19.39,0000 0000 0000 0000 000000
2017-01-17 07:26:58,0.03,0.44,0.00,22.19,26.53,29.81,14.82,47.99,1032.24,2031.20,3401.11,3013.61,3404.05,599.95,606.75,19.44,0000 0000 0000 0000 000000
2017-01-17 07:32:00,0.04,0.45,0.00,22.20,26.52,29.75,14.73,47.86,1032.24,2031.31,3400.51,3013.02,3403.77,600.03,606.80,19.49,0000 0000 0000 0000 000000
2017-01-17 07:37:01,0.04,0.45,0.00,22.19,26.52,29.82,14.77,47.87,1032.24,2031.65,3400.00,3012.98,3403.05,599.79,606.60,19.54,0000 0000 0000 0000 000000
2017-01-17 07:42:02,0.04,0.45,0.00,22.19,26.51,29.75,14.86,47.98,1032.24,2031.75,3399.25,3012.26,3402.68,600.11,606.82,19.59,0000 0000 0000 0000 000000
2017-01-17 07:47:04,0.03,0.45,0.00,22.19,26.50,29.78,14.86,47.98,1032.24,2031.84,3398.61,3012.00,3402.03,600.19,607.13,19.64,0000 0000 0000 0000 000000
2017-01-17 07:52:05,0.04,0.45,0.00,22.19,26.50,29.79,14.73,47.95,1032.25,2031.92,3397.96,3011.48,3401.69,599.81,606.83,19.69,0000 0000 0000 0000 000000
2017-01-17 07:57:06,0.01,0.46,0.00,22.19,26.50,29.74,14.81,47.92,1032.25,2031.84,3397.10,3011.00,3401.02,599.94,606.84,19.74,0000 0000 0000 0000 000000
2017-01-17 08:02:08,0.05,0.46,0.00,22.18,26.50,29.81,14.80,48.04,1032.24,2031.89,3396.30,3010.46,3400.37,599.93,606.72,19.79,0000 0000 0000 0000 000000
2017-01-17 08:07:09,0.01,0.46,0.00,22.18,26.49,29.83,14.80,48.08,1032.24,2031.94,3395.67,3010.01,3400.00,599.90,606.79,19.84,0000 0000 0000 0000 000000
2017-01-17 08:12:11,0.03,0.46,0.00,22.19,26.49,29.75,14.90,48.12,1032.24,2031.96,3394.98,3009.65,3399.43,600.39,607.14,19.89,0000 0000 0000 0000 000000
2017-01-17 08:17:12,0.02,0.46,0.00,22.18,26.48,29.78,14.78,48.13,1032.08,2031.95,3394.18,3009.03,3398.98,600.06,606.86,19.94,0000 0000 0000 0000 000000
2017-01-17 08:22:13,0.03,0.46,0.00,22.18,26.47,29.76,14.89,48.03,1032.05,2031.98,3393.65,3008.95,3398.42,600.20,607.07,19.99,0000 0000 0000 0000 000000
2017-01-17 08:27:15,0.03,0.47,0.00,22.19,26.47,29.82,14.75,48.01,1031.94,2031.98,3392.90,3008.21,3397.89,599.77,606.44,20.04,0000 0000 0000 0000 000000
2017-01-17 08:32:16,0.02,0.47,0.00,22.19,26.47,29.85,14.88,47.97,1031.89,2031.98,3392.08,3007.97,3397.08,600.23,606.85,20.09,0000 0000 0000 0000 000000
2017-01-17 08:37:17,0.04,0.47,0.00,22.20,26.47,29.90,14.83,47.99,1031.84,2031.98,3391.53,3007.29,3396.71,600.37,607.04,20.14,0000 0000 0000 0000 000000
2017-01-17 08:42:18,0.01,0.47,0.00,22.21,26.47,29.91,14.81,47.98,1031.77,2031.98,3390.97,3007.00,3396.04,600.28,606.88,20.19,0000 0000 0000 0000 000000
2017-01-17 08:47:19,0.04,0.47,0.00,22.19,26.47,29.93,14.86,48.05,1031.76,2031.99,3390.15,3006.62,3395.57,600.55,606.97,20.24,0000 0000 0000 0000 000000
2017-01-17 08:52:21,0.02,0.47,0.00,22.19,26.47,29.92,14.83,48.06,1031.77,2031.98,3389.40,3006.01,3394.94,600.48,607.14,20.29,0000 0000 0000 0000 000000
2017-01-17 08:57:22,0.04,0.48,0.00,22.19,26.47,29.77,14.81,48.02,1031.76,2031.99,3388.72,3005.48,3394.13,600.28,606.86,20.34,0000 0000 0000 0000 000000
2017-01-17 09:02:23,0.02,0.48,0.00,22.20,26.47,29.90,14.79,48.09,1031.75,2031.98,3387.92,3005.00,3393.69,600.26,606.77,20.39,0000 0000 0000 0000 000000
2017-01-17 09:07:24,0.03,0.48,0.00,22.19,26.47,29.87,14.73,48.08,1031.60,2031.97,3387.08,3004.50,3393.02,599.76,606.30,20.44,0000 0000 0000 0000 000000
2017-01-17 09:12:25,0.03,0.48,0.00,22.18,26.47,29.93,14.85,47.97,1031.69,2031.98,3386.49,3004.01,3392.41,600.22,606.73,20.49,0000 0000 0000 0000 000000
2017-01-17 09:17:26,0.02,0.48,0.00,22.19,26.47,29.77,14.76,48.02,1031.70,2031.97,3385.81,3003.58,3391.94,599.81,606.26,20.54,0000 0000 0000 0000 000000
2017-01-17 09:22:28,0.03,0.49,0.00,22.19,26.47,29.82,14.71,47.90,1031.73,2031.98,3385.03,3003.01,3391.21,599.86,606.42,20.59,0000 0000 0000 0000 000000
2017-01-17 09:27:29,0.03,0.49,0.00,22.17,26.47,29.87,14.77,47.93,1031.74,2031.99,3384.28,3002.64,3390.99,599.72,606.33,20.64,0000 0000 0000 0000 000000
2017-01-17 09:32:30,0.04,0.49,0.00,22.17,26.47,29.80,14.78,47.79,1031.75,2031.99,3383.48,3002.02,3390.29,599.96,606.63,20.69,0000 0000 0000 0000 000000
2017-01-17 09:37:32,0.03,0.49,0.00,22.18,26.47,29.87,14.83,48.02,1031.75,2031.99,3382.80,3001.61,3389.86,599.94,606.52,20.74,0000 0000 0000 0000 000000
2017-01-17 09:42:33,0.03,0.49,0.00,22.19,26.47,29.86,14.80,47.98,1031.75,2031.98,3382.02,3001.02,3389.07,600.35,606.93,20.80,0000 0000 0000 0000 000000
2017-01-17 09:47:34,0.04,0.49,0.00,22.20,26.47,29.91,14.79,47.98,1031.75,2031.99,3381.20,3000.64,3388.62,599.80,606.38,20.85,0000 0000 0000 0000 000000
2017-01-17 09:52:35,0.02,0.50,0.00,22.22,26.47,29.85,14.79,47.94,1031.75,2031.99,3380.53,3000.01,3388.00,599.82,606.11,20.90,0000 0000 0000 0000 000000
2017-01-17 09:57:36,0.03,0.50,0.00,22.23,26.47,29.89,14.82,47.92,1031.75,2031.99,3379.87,2999.71,3387.43,599.93,606.42,20.95,0000 0000 0000 0000 000000
2017-01-17 10:02:38,0.03,0.50,0.00,22.22,26.47,29.90,14.78,47.92,1031.76,2031.99,3379.04,2999.03,3386.74,600.17,606.63,21.00,0000 0000 0000 0000 000000
2017-01-17 10:07:39,0.04,0.50,0.00,22.23,26.47,29.89,14.77,47.89,1031.76,2031.99,3378.22,2998.58,3386.04,600.01,606.51,21.05,0000 0000 0000 0000 000000
2017-01-17 10:12:40,0.02,0.50,0.00,22.22,26.47,29.85,14.72,48.04,1031.76,2031.99,3377.62,2998.02,3385.73,599.61,606.22,21.10,0000 0000 0000 0000 000000
2017-01-17 10:17:42,0.03,0.50,0.00,22.22,26.47,29.94,14.84,47.95,1031.76,2031.99,3376.85,2997.62,3385.02,600.01,606.37,21.15,0000 0000 0000 0000 000000
2017-01-17 10:22:43,0.03,0.51,0.00,22.24,26.47,29.96,14.84,48.00,1031.76,2031.99,3376.02,2997.00,3384.23,600.14,606.62,21.20,0000 0000 0000 0000 000000
2017-01-17 10:27:44,0.04,0.51,0.00,22.24,26.47,29.94,14.75,47.99,1031.76,2031.97,3375.10,2996.27,3383.69,600.05,606.38,21.25,0000 0000 0000 0000 000000
2017-01-17 10:32:45,0.03,0.51,0.00,22.25,26.48,29.97,14.80,48.09,1031.76,2031.98,3374.21,2995.92,3382.99,600.05,606.42,21.30,0000 0000 0000 0000 000000
2017-01-17 10:37:46,0.04,0.51,0.00,22.27,26.50,30.00,14.75,47.94,1031.76,2031.98,3373.57,2995.17,3382.23,600.00,606.32,21.35,0000 0000 0000 0000 000000
2017-01-17 10:42:47,0.01,0.51,0.00,22.27,26.50,30.00,14.74,48.04,1031.76,2031.97,3372.98,2994.91,3381.69,599.93,606.35,21.40,0000 0000 0000 0000 000000
2017-01-17 10:47:49,0.04,0.52,0.00,22.27,26.50,30.02,14.72,48.06,1031.76,2031.94,3372.17,2994.10,3380.98,599.92,606.31,21.45,0000 0000 0000 0000 000000
2017-01-17 10:52:50,0.03,0.52,0.00,22.27,26.50,30.02,14.75,48.09,1031.75,2031.93,3371.34,2993.93,3380.28,599.81,606.21,21.50,0000 0000 0000 0000 000000
2017-01-17 10:57:51,0.03,0.52,0.00,22.29,26.50,30.04,14.79,48.16,1031.74,2031.92,3370.61,2993.13,3379.79,600.05,606.39,21.55,0000 0000 0000 0000 000000
2017-01-17 11:02:53,0.03,0.52,0.00,22.28,26.51,30.06,14.78,48.11,1031.64,2031.88,3369.77,2992.69,3379.04,600.23,606.55,21.60,0000 0000 0000 0000 000000
2017-01-17 11:07:54,0.02,0.52,0.00,22.29,26.52,30.03,14.81,48.08,1031.43,2031.73,3368.93,2992.02,3378.25,600.00,606.28,21.65,0000 0000 0000 0000 000000
2017-01-17 11:12:55,0.05,0.52,0.00,22.28,26.52,30.03,14.74,48.05,1031.32,2031.70,3368.06,2991.55,3377.76,599.88,606.04,21.70,0000 0000 0000 0000 000000
2017-01-17 11:17:57,0.02,0.53,0.00,22.25,26.52,30.02,14.77,47.94,1031.29,2031.77,3367.23,2990.99,3377.04,600.09,606.31,21.75,0000 0000 0000 0000 000000
2017-01-17 11:22:58,0.03,0.53,0.00,22.26,26.52,30.01,14.79,47.88,1031.29,2031.51,3366.30,2990.20,3376.25,600.17,606.31,21.80,0000 0000 0000 0000 000000
2017-01-17 11:27:59,0.04,0.53,0.00,22.28,26.52,30.04,14.82,47.99,1031.28,2031.75,3365.63,2989.98,3375.90,600.21,606.28,21.85,0000 0000 0000 0000 000000
2017-01-17 11:33:00,0.05,0.53,0.00,22.26,26.52,29.99,14.82,48.13,1031.27,2031.75,3364.79,2989.19,3375.08,599.98,606.25,21.90,0000 0000 0000 0000 000000
2017-01-17 11:38:01,0.03,0.53,0.00,22.25,26.52,29.97,14.78,48.14,1031.28,2031.78,3363.89,2988.77,3374.36,600.09,606.20,21.95,0000 0000 0000 0000 000000
2017-01-17 11:43:03,0.01,0.54,0.00,22.25,26.52,29.94,14.87,48.20,1031.27,2031.55,3363.00,2988.04,3373.72,600.43,606.51,22.00,0000 0000 0000 0000 000000
2017-01-17 11:48:04,0.04,0.54,0.00,22.24,26.52,29.90,14.80,48.09,1031.27,2031.40,3362.08,2987.38,3372.94,600.21,606.35,22.05,0000 0000 0000 0000 000000
2017-01-17 11:53:05,0.03,0.54,0.00,22.22,26.52,29.95,14.81,48.02,1031.25,2031.33,3361.20,2986.94,3372.11,600.36,606.49,22.10,0000 0000 0000 0000 000000
2017-01-17 11:58:06,0.07,0.54,0.00,22.23,26.52,29.83,14.83,48.15,1031.23,2031.44,3360.35,2986.16,3371.61,600.10,606.33,22.15,0000 0000 0000 0000 000000
2017-01-17 12:03:07,0.02,0.54,0.00,22.20,26.52,29.89,14.75,48.16,1031.25,2031.44,3359.53,2985.82,3370.94,599.71,605.98,22.20,0000 0000 0000 0000 000000
2017-01-17 12:08:08,0.04,0.55,0.00,22.20,26.52,29.84,14.79,48.13,1031.26,2031.50,3358.65,2985.05,3370.09,600.06,606.22,22.25,0000 0000 0000 0000 000000
2017-01-17 12:13:10,0.05,0.55,0.00,22.20,26.51,29.81,14.82,48.15,1031.26,2031.68,3357.81,2984.62,3369.60,600.01,606.30,22.30,0000 0000 0000 0000 000000
2017-01-17 12:18:12,0.03,0.55,0.00,22.18,26.50,29.80,14.82,48.13,1031.26,2031.70,3356.95,2984.01,3368.93,600.20,606.50,22.35,0000 0000 0000 0000 000000
2017-01-17 12:23:13,0.05,0.55,0.00,22.18,26.50,29.85,14.85,48.25,1031.23,2031.76,3356.09,2983.40,3368.10,600.12,606.38,22.40,0000 0000 0000 0000 000000
2017-01-17 12:28:14,0.04,0.55,0.00,22.15,26.50,29.82,14.78,48.06,1031.20,2031.80,3355.24,2982.95,3367.42,600.12,606.35,22.45,0000 0000 0000 0000 000000
2017-01-17 12:33:15,0.04,0.56,0.00,22.13,26.49,29.80,14.80,48.10,1030.94,2031.73,3354.38,2982.15,3366.81,600.15,606.41,22.50,0000 0000 0000 0000 000000
2017-01-17 12:38:17,0.05,0.56,0.00,22.13,26.48,29.83,14.80,48.14,1030.83,2031.85,3353.48,2981.81,3366.06,600.06,606.25,22.55,0000 0000 0000 0000 000000
2017-01-17 12:43:18,0.04,0.56,0.00,22.11,26.47,29.83,14.80,48.15,1030.80,2031.86,3352.68,2981.06,3365.45,600.07,606.20,22.60,0000 0000 0000 0000 000000
2017-01-17 12:48:19,0.03,0.56,0.00,22.08,26.47,29.79,14.86,48.30,1030.78,2031.90,3351.86,2980.58,3364.90,600.01,606.24,22.65,0000 0000 0000 0000 000000
2017-01-17 12:53:21,0.03,0.57,0.00,22.06,26.46,29.75,14.81,48.20,1030.79,2031.94,3350.96,2980.00,3364.08,599.77,606.13,22.70,0000 0000 0000 0000 000000